Weather History for Waukesha, WI

Change the Weather History Date:

Tuesday, November 13, 2012

  Actual Average Record
Temperature  
Mean Temperature 28 °F -  
Max Temperature 37 °F 42 °F 68 °F (1999)
Min Temperature 19 °F 28 °F 2 °F (1986)
Degree Days  
Heating Degree Days 37    
Moisture  
Dew Point 18 °F    
Average Humidity 69    
Maximum Humidity 93    
Minimum Humidity 48    
Precipitation  
Precipitation 0.00 in - - ()
Sea Level Pressure  
Sea Level Pressure 30.40 in    
Wind  
Wind Speed 8 mph (SW)    
Max Wind Speed 14 mph    
Max Gust Speed 18 mph    
Visibility 10 miles    
Events      
Averages and records for this station are not official NWS values.
T = Trace of Precipitation, MM = Missing Value Source: NWS Daily Summary

Daily Weather History Graph

Daily Weather History Graph

Search for Another Location

Airport:

Trip Planner

Search our weather history database for the weather conditions in past years. The results will help you decide how hot, cold, wet, or windy it might be!

Date:

Astronomy

Nov. 13, 2012 Rise Set
Actual Time 6:43 AM CST 4:30 PM CST
Civil Twilight 6:13 AM CST 5:01 PM CST
Nautical Twilight 5:38 AM CST 5:35 PM CST
Astronomical Twilight 5:05 AM CST 6:08 PM CST
Moon 6:21 AM CST (11/13) 4:22 PM CST (11/13)
Length of Visible Light 10h 48m
Length of Day
9h 47m
Waning Crescent, 0% of the Moon is Illuminated
Nov 13
Waning Crescent
Nov 13
New
Nov 20
First Quarter
Nov 28
Full
Dec 6
Last Quarter

Hourly Weather History & Observations

Time (CST) Temp. Windchill Dew Point Humidity Pressure Visibility Wind Dir Wind Speed Gust Speed Precip Events Conditions
12:15 AM 24.8 °F 13.4 °F 15.8 °F 69% 30.30 in 10.0 mi West 12.7 mph 16.1 mph N/A   Overcast
12:35 AM 26.6 °F 16.2 °F 15.8 °F 64% 30.31 in 10.0 mi West 11.5 mph 16.1 mph N/A   Overcast
12:55 AM 26.6 °F 17.5 °F 15.8 °F 64% 30.31 in 10.0 mi WNW 9.2 mph - N/A   Overcast
1:15 AM 26.6 °F 15.2 °F 14.0 °F 59% 30.31 in 10.0 mi WNW 13.8 mph - N/A   Overcast
1:35 AM 26.6 °F 15.7 °F 15.8 °F 64% 30.32 in 10.0 mi WNW 12.7 mph 18.4 mph N/A   Overcast
1:55 AM 26.6 °F 17.5 °F 15.8 °F 64% 30.33 in 10.0 mi WNW 9.2 mph - N/A   Overcast
2:15 AM 24.8 °F 13.4 °F 15.8 °F 69% 30.33 in 10.0 mi WNW 12.7 mph - N/A   Mostly Cloudy
2:35 AM 23.0 °F 13.1 °F 14.0 °F 68% 30.33 in 10.0 mi WNW 9.2 mph - N/A   Scattered Clouds
2:55 AM 23.0 °F 13.9 °F 15.8 °F 74% 30.33 in 10.0 mi WNW 8.1 mph - N/A   Clear
3:15 AM 23.0 °F 18.4 °F 15.8 °F 74% 30.34 in 10.0 mi West 3.5 mph - N/A   Clear
3:35 AM 21.2 °F 14.9 °F 14.0 °F 74% 30.35 in 10.0 mi WSW 4.6 mph - N/A   Clear
3:55 AM 21.2 °F 13.6 °F 14.0 °F 74% 30.35 in 10.0 mi WSW 5.8 mph - N/A   Clear
4:15 AM 21.2 °F 13.6 °F 14.0 °F 74% 30.36 in 10.0 mi WSW 5.8 mph - N/A   Clear
4:35 AM 21.2 °F 16.4 °F 15.8 °F 80% 30.37 in 10.0 mi SW 3.5 mph - N/A   Clear
6:45 AM 19.4 °F 10.4 °F 17.6 °F 93% 30.42 in 10.0 mi West 6.9 mph - N/A   Clear
7:45 AM 21.2 °F 12.6 °F 17.6 °F 86% 30.43 in 10.0 mi WSW 6.9 mph - N/A   Clear
8:45 AM 24.8 °F 16.9 °F 17.6 °F 74% 30.25 in 10.0 mi West 6.9 mph - N/A   Clear
9:45 AM 26.6 °F 19.1 °F 17.6 °F 69% 30.46 in 10.0 mi West 6.9 mph - N/A   Clear
10:45 AM 30.2 °F 23.4 °F 19.4 °F 64% 30.47 in 10.0 mi WSW 6.9 mph - N/A   Clear
11:45 AM 33.8 °F 27.0 °F 19.4 °F 56% 30.44 in 10.0 mi WSW 8.1 mph - N/A   Clear
12:45 PM 35.6 °F 30.7 °F 19.4 °F 52% 30.42 in 10.0 mi SW 5.8 mph - N/A   Clear
1:45 PM 35.6 °F 29.9 °F 19.4 °F 52% 30.41 in 10.0 mi SW 6.9 mph - N/A   Clear
2:45 PM 37.4 °F 32.8 °F 19.4 °F 48% 30.41 in 10.0 mi WSW 5.8 mph - N/A   Clear
3:45 PM 35.6 °F 30.7 °F 19.4 °F 52% 30.43 in 10.0 mi WSW 5.8 mph - N/A   Clear
4:45 PM 33.8 °F 30.8 °F 19.4 °F 56% 30.43 in 10.0 mi WSW 3.5 mph - N/A   Clear
5:45 PM 30.2 °F 26.7 °F 19.4 °F 64% 30.45 in 10.0 mi SSW 3.5 mph - N/A   Clear
6:45 PM 28.4 °F - 19.4 °F 69% 30.45 in 10.0 mi Calm Calm - N/A   Clear
7:45 PM 30.2 °F 26.7 °F 21.2 °F 69% 30.45 in 10.0 mi South 3.5 mph - N/A   Clear
8:15 PM 30.2 °F 26.7 °F 21.2 °F 69% 30.45 in 10.0 mi South 3.5 mph - N/A   Clear
8:35 PM 30.2 °F 25.4 °F 21.2 °F 69% 30.46 in 10.0 mi South 4.6 mph - N/A   Clear
8:45 PM 28.4 °F 24.6 °F 21.2 °F 74% 30.45 in 10.0 mi South 3.5 mph - N/A   Clear
8:55 PM 30.2 °F 26.7 °F 21.2 °F 69% 30.46 in 10.0 mi South 3.5 mph - N/A   Clear
9:15 PM 30.2 °F 25.4 °F 21.2 °F 69% 30.46 in 10.0 mi South 4.6 mph - N/A   Clear
9:35 PM 28.4 °F 23.3 °F 21.2 °F 74% 30.46 in 10.0 mi South 4.6 mph - N/A   Clear
9:55 PM 28.4 °F - 21.2 °F 74% 30.47 in 10.0 mi Calm Calm - N/A   Clear
10:15 PM 28.4 °F 24.6 °F 21.2 °F 74% 30.46 in 10.0 mi South 3.5 mph - N/A   Clear
10:35 PM 28.4 °F 24.6 °F 21.2 °F 74% 30.46 in 10.0 mi South 3.5 mph - N/A   Clear
10:55 PM 28.4 °F 24.6 °F 21.2 °F 74% 30.47 in 10.0 mi South 3.5 mph - N/A   Clear
11:15 PM 28.4 °F 23.3 °F 21.2 °F 74% 30.47 in 10.0 mi South 4.6 mph - N/A   Clear
11:35 PM 28.4 °F - 21.2 °F 74% 30.47 in 10.0 mi Calm Calm - N/A   Clear
11:55 PM 28.4 °F 24.6 °F 23.0 °F 80% 30.47 in 10.0 mi South 3.5 mph - N/A   Clear